Grand Prairie, TX

1:14 AM CDT on July 26, 2017 (GMT -0500)
Grand Prairie Municipal

Weather History for KGPM - December, 2013

Change the Weather History Date:

Tuesday, December 17, 2013

  Actual Average (KRBD) Record (KRBD)
Temperature  
Mean Temperature 53 °F -  
Max Temperature 69 °F 54 °F 78 °F (2006)
Min Temperature 37 °F 35 °F 21 °F (2000)
Degree Days  
Heating Degree Days 12    
Growing Degree Days 3 (Base 50)    
Moisture  
Dew Point 34 °F    
Average Humidity 61    
Maximum Humidity 87    
Minimum Humidity 27    
Precipitation  
Precipitation 0.00 in - - ()
Sea Level Pressure  
Sea Level Pressure 30.27 in    
Wind  
Wind Speed 4 mph (SSW)    
Max Wind Speed 8 mph    
Max Gust Speed -    
Visibility 10 miles    
Events      
Averages and records for this station are not official NWS values.
T = Trace of Precipitation, MM = Missing Value Source: NWS Daily Summary

Daily Weather History Graph

Daily Weather History Graph

Search for Another Location

Airport or City:

Trip Planner

Search our weather history database for the weather conditions in past years. The results will help you decide how hot, cold, wet, or windy it might be!

Date:

Astronomy

Dec. 17, 2013 Rise Set
Actual Time 7:24 AM CST 5:24 PM CST
Civil Twilight 6:57 AM CST 5:51 PM CST
Nautical Twilight 6:26 AM CST 6:22 PM CST
Astronomical Twilight 5:56 AM CST 6:52 PM CST
Moon 6:02 PM CST (12/17) 7:24 AM CST (12/17)
Length of Visible Light 10h 54m
Length of Day
10h 00m
Full, 100% of the Moon is Illuminated
Dec 17
Full
Dec 25
Last Quarter
Jan 1
New
Jan 7
First Quarter
Jan 15
Full

Hourly Weather History & Observations

Time (CST) Temp. Windchill Dew Point Humidity Pressure Visibility Wind Dir Wind Speed Gust Speed Precip Events Conditions
12:15 AM 46.4 °F 43.5 °F 33.8 °F 62% 30.23 in 10.0 mi SSW 5.8 mph - N/A   Clear
12:35 AM 44.6 °F 42.2 °F 33.8 °F 66% 30.23 in 10.0 mi South 4.6 mph - N/A   Clear
12:55 AM 44.6 °F 42.2 °F 33.8 °F 66% 30.23 in 10.0 mi SSW 4.6 mph - N/A   Clear
1:15 AM 44.6 °F 42.2 °F 33.8 °F 66% 30.23 in 10.0 mi SSW 4.6 mph - N/A   Clear
1:35 AM 42.8 °F 39.3 °F 33.8 °F 70% 30.23 in 10.0 mi SSW 5.8 mph - N/A   Clear
1:55 AM 42.8 °F 39.3 °F 33.8 °F 70% 30.23 in 10.0 mi SW 5.8 mph - N/A   Clear
2:15 AM 42.8 °F 39.3 °F 33.8 °F 70% 30.23 in 10.0 mi SW 5.8 mph - N/A   Clear
2:35 AM 41.0 °F 38.0 °F 33.8 °F 76% 30.24 in 10.0 mi SW 4.6 mph - N/A   Clear
2:55 AM 41.0 °F 38.0 °F 33.8 °F 76% 30.24 in 10.0 mi SSW 4.6 mph - N/A   Clear
3:15 AM 41.0 °F - 33.8 °F 76% 30.24 in 10.0 mi Calm Calm - N/A   Clear
3:35 AM 41.0 °F 38.0 °F 33.8 °F 76% 30.24 in 10.0 mi SSW 4.6 mph - N/A   Clear
3:55 AM 39.2 °F 33.6 °F 33.8 °F 81% 30.24 in 10.0 mi SSW 8.1 mph - N/A   Clear
4:15 AM 39.2 °F 35.9 °F 32.0 °F 75% 30.24 in 10.0 mi SSW 4.6 mph - N/A   Clear
4:35 AM 39.2 °F 37.0 °F 32.0 °F 75% 30.24 in 10.0 mi SSW 3.5 mph - N/A   Clear
4:55 AM 37.4 °F 32.1 °F 32.0 °F 81% 30.24 in 10.0 mi SSW 6.9 mph - N/A   Clear
5:15 AM 37.4 °F 33.8 °F 32.0 °F 81% 30.24 in 10.0 mi SSW 4.6 mph - N/A   Clear
5:35 AM 37.4 °F 33.8 °F 32.0 °F 81% 30.24 in 10.0 mi SW 4.6 mph - N/A   Clear
5:55 AM 37.4 °F - 32.0 °F 81% 30.25 in 10.0 mi Calm Calm - N/A   Clear
7:51 AM 37.4 °F 33.8 °F 33.8 °F 87% 30.28 in 10.0 mi SSW 4.6 mph - N/A   Clear
8:51 AM 42.8 °F 41.1 °F 33.8 °F 70% 30.30 in 10.0 mi SW 3.5 mph - N/A   Clear
9:50 AM 48.2 °F - 35.6 °F 62% 30.32 in 10.0 mi Calm Calm - N/A   Clear
10:50 AM 57.2 °F - 35.6 °F 44% 30.32 in 10.0 mi Calm Calm - N/A   Clear
11:50 AM 60.8 °F - 33.8 °F 36% 30.31 in 10.0 mi Calm Calm - N/A   Clear
12:50 PM 62.6 °F - 33.8 °F 34% 30.29 in 10.0 mi Calm Calm - N/A   Clear
1:55 PM 66.2 °F - 33.8 °F 30% 30.26 in 10.0 mi Calm Calm - N/A   Clear
2:55 PM 68.0 °F - 33.8 °F 28% 30.26 in 10.0 mi Calm Calm - N/A   Clear
3:50 PM 69.8 °F - 33.8 °F 27% 30.27 in 10.0 mi Calm Calm - N/A   Clear
4:50 PM 66.2 °F - 33.8 °F 30% 30.27 in 10.0 mi Calm Calm - N/A   Clear
5:50 PM 62.6 °F - 33.8 °F 34% 30.27 in 7.0 mi Calm Calm - N/A   Clear
8:15 PM 55.4 °F - 33.8 °F 44% 30.30 in 10.0 mi Calm Calm - N/A   Clear
8:35 PM 53.6 °F - 35.6 °F 51% 30.30 in 10.0 mi Calm Calm - N/A   Clear
8:55 PM 53.6 °F - 35.6 °F 51% 30.29 in 10.0 mi Calm Calm - N/A   Clear
9:15 PM 51.8 °F - 35.6 °F 54% 30.29 in 10.0 mi Calm Calm - N/A   Clear
9:35 PM 51.8 °F - 35.6 °F 54% 30.29 in 10.0 mi SSW 4.6 mph - N/A   Clear
9:55 PM 51.8 °F - 35.6 °F 54% 30.30 in 10.0 mi SW 3.5 mph - N/A   Clear
10:15 PM 50.0 °F - 35.6 °F 58% 30.30 in 10.0 mi Calm Calm - N/A   Clear
10:35 PM 51.8 °F - 35.6 °F 54% 30.30 in 10.0 mi SW 4.6 mph - N/A   Clear
10:55 PM 50.0 °F - 37.4 °F 62% 30.30 in 10.0 mi Calm Calm - N/A   Clear
11:15 PM 50.0 °F - 37.4 °F 62% 30.30 in 10.0 mi Calm Calm - N/A   Clear
11:35 PM 46.4 °F - 35.6 °F 66% 30.29 in 10.0 mi Calm Calm - N/A   Clear
11:55 PM 44.6 °F - 35.6 °F 71% 30.29 in 10.0 mi Calm Calm - N/A   Clear